Location: Wavehorne
(51.0500°N, 0.8333°E)
Time: 02:56:13
(UTC+00:00)

Cosmos 1892 - Pass Details

Date: 20 June 2021
Orbit: 501 x 524 km, 82.5° (Epoch: 04 August)

Event Time Altitude Azimuth Distance (km) Brightness Sun altitude
Exits shadow 01:21:20 17° 236° (SW) 1,397 4.4 -13.3°
Maximum altitude 01:23:43 30° 289° (WNW) 955 4.0 -13.2°
Drops below altitude 10° 01:27:12 10° 352° (N) 1,777 6.4 -13.0°
Sets 01:29:33 0° 3° (N) 2,670 7.9 -12.8°
